Previsão horária em Alhos Vedros

Hoje, 19 Junho, Sábado

Tempo Temperatura Precipitação Vento Pressão Humidade
00:00 +16°C° 0.1 mm 7 m/s 761 mmHg 89%
01:00 +16°C° 0.1 mm 6 m/s 761 mmHg 88%
02:00 +16°C° 0.1 mm 6 m/s 761 mmHg 88%
03:00 +16°C° 0.2 mm 6 m/s 761 mmHg 87%
04:00 +16°C° 0.2 mm 6 m/s 761 mmHg 87%
05:00 +16°C° 0 mm 6 m/s 762 mmHg 86%
06:00 +17°C° 0 mm 6 m/s 762 mmHg 81%
07:00 +19°C° 0 mm 6 m/s 762 mmHg 75%
08:00 +20°C° 0 mm 6 m/s 762 mmHg 69%
09:00 +20°C° 0.1 mm 6 m/s 762 mmHg 67%
10:00 +20°C° 0.1 mm 6 m/s 762 mmHg 64%
11:00 +21°C° 0.1 mm 7 m/s 762 mmHg 62%
12:00 +21°C° 0 mm 6 m/s 762 mmHg 60%
13:00 +21°C° 0 mm 6 m/s 762 mmHg 58%
14:00 +22°C° 0 mm 6 m/s 762 mmHg 55%
15:00 +21°C° 0 mm 6 m/s 762 mmHg 57%
16:00 +20°C° 0 mm 6 m/s 762 mmHg 59%
17:00 +19°C° 0 mm 6 m/s 762 mmHg 61%
18:00 +17°C° 0 mm 5 m/s 762 mmHg 65%
19:00 +17°C° 0 mm 4 m/s 763 mmHg 68%
20:00 +15°C° 0 mm 4 m/s 763 mmHg 71%
21:00 +16°C° 0 mm 3 m/s 762 mmHg 73%
22:00 +16°C° 0 mm 3 m/s 762 mmHg 76%
23:00 +16°C° 0 mm 3 m/s 761 mmHg 78%

Amanhã, 20 Junho, Domingo

Tempo Temperatura Precipitação Vento Pressão Humidade
00:00 +15°C° 0 mm 4 m/s 761 mmHg 79%
01:00 +15°C° 0 mm 4 m/s 760 mmHg 80%
02:00 +16°C° 0 mm 5 m/s 760 mmHg 82%
03:00 +16°C° 0.2 mm 6 m/s 759 mmHg 85%
04:00 +16°C° 0.2 mm 6 m/s 759 mmHg 88%
05:00 +17°C° 0.2 mm 7 m/s 759 mmHg 91%
06:00 +17°C° 0.4 mm 6 m/s 759 mmHg 91%
07:00 +17°C° 0.4 mm 6 m/s 759 mmHg 91%
08:00 +19°C° 0.4 mm 6 m/s 759 mmHg 91%
09:00 +20°C° 0.2 mm 6 m/s 759 mmHg 76%
10:00 +22°C° 0.2 mm 6 m/s 759 mmHg 62%
11:00 +23°C° 0.2 mm 6 m/s 759 mmHg 47%
12:00 +23°C° 0 mm 6 m/s 759 mmHg 48%
13:00 +23°C° 0 mm 6 m/s 759 mmHg 48%
14:00 +23°C° 0 mm 6 m/s 759 mmHg 48%
15:00 +23°C° 0 mm 6 m/s 759 mmHg 49%
16:00 +22°C° 0 mm 6 m/s 759 mmHg 51%
17:00 +21°C° 0 mm 6 m/s 759 mmHg 52%
18:00 +20°C° 0 mm 5 m/s 760 mmHg 59%
19:00 +18°C° 0 mm 4 m/s 760 mmHg 66%
20:00 +17°C° 0 mm 4 m/s 760 mmHg 73%
21:00 +17°C° 0 mm 4 m/s 760 mmHg 72%
22:00 +18°C° 0 mm 4 m/s 760 mmHg 71%
23:00 +18°C° 0 mm 3 m/s 760 mmHg 70%

Depois de amanhã, 21 Junho, Segunda-feira

Tempo Temperatura Precipitação Vento Pressão Humidade
00:00 +18°C° 0 mm 4 m/s 760 mmHg 70%
01:00 +18°C° 0 mm 4 m/s 759 mmHg 70%
02:00 +18°C° 0 mm 4 m/s 759 mmHg 71%
03:00 +18°C° 0 mm 4 m/s 759 mmHg 72%
04:00 +18°C° 0 mm 3 m/s 759 mmHg 73%
05:00 +18°C° 0 mm 3 m/s 759 mmHg 74%
06:00 +19°C° 0.1 mm 4 m/s 760 mmHg 71%
07:00 +20°C° 0.1 mm 4 m/s 760 mmHg 68%
08:00 +20°C° 0.1 mm 4 m/s 760 mmHg 65%
09:00 +22°C° 0.1 mm 5 m/s 760 mmHg 59%
10:00 +23°C° 0.1 mm 5 m/s 760 mmHg 53%
11:00 +25°C° 0.1 mm 5 m/s 761 mmHg 47%
12:00 +25°C° 0 mm 5 m/s 761 mmHg 47%
13:00 +24°C° 0 mm 6 m/s 761 mmHg 46%
14:00 +24°C° 0 mm 6 m/s 760 mmHg 46%
15:00 +23°C° 0 mm 6 m/s 761 mmHg 50%
16:00 +23°C° 0 mm 6 m/s 761 mmHg 54%
17:00 +22°C° 0 mm 6 m/s 761 mmHg 58%
18:00 +20°C° 0 mm 6 m/s 761 mmHg 66%
19:00 +19°C° 0 mm 6 m/s 762 mmHg 73%
20:00 +17°C° 0 mm 5 m/s 762 mmHg 80%
21:00 +16°C° 0 mm 5 m/s 762 mmHg 83%
22:00 +17°C° 0 mm 4 m/s 762 mmHg 87%
23:00 +15°C° 0 mm 4 m/s 762 mmHg 90%

22 Junho, Terça-feira

Tempo Temperatura Precipitação Vento Pressão Humidade
00:00 +15°C° 0 mm 4 m/s 762 mmHg 90%
01:00 +15°C° 0 mm 4 m/s 762 mmHg 91%
02:00 +15°C° 0 mm 4 m/s 761 mmHg 91%
03:00 +15°C° 0 mm 5 m/s 762 mmHg 90%
04:00 +15°C° 0 mm 5 m/s 762 mmHg 90%
05:00 +15°C° 0 mm 5 m/s 762 mmHg 89%
06:00 +17°C° 0 mm 6 m/s 762 mmHg 79%
07:00 +20°C° 0 mm 6 m/s 762 mmHg 69%
08:00 +21°C° 0 mm 7 m/s 762 mmHg 59%
09:00 +22°C° 0 mm 7 m/s 762 mmHg 53%
10:00 +23°C° 0 mm 8 m/s 762 mmHg 48%
11:00 +24°C° 0 mm 8 m/s 762 mmHg 42%
12:00 +24°C° 0 mm 9 m/s 762 mmHg 42%
13:00 +24°C° 0 mm 9 m/s 762 mmHg 42%
14:00 +24°C° 0 mm 9 m/s 762 mmHg 41%
15:00 +23°C° 0 mm 9 m/s 763 mmHg 47%
16:00 +22°C° 0 mm 9 m/s 763 mmHg 52%
17:00 +21°C° 0 mm 9 m/s 763 mmHg 58%
18:00 +18°C° 0 mm 9 m/s 763 mmHg 65%
19:00 +17°C° 0 mm 8 m/s 763 mmHg 73%
20:00 +16°C° 0 mm 8 m/s 763 mmHg 80%
21:00 +16°C° 0 mm 8 m/s 763 mmHg 81%
22:00 +16°C° 0 mm 7 m/s 763 mmHg 82%
23:00 +16°C° 0 mm 7 m/s 763 mmHg 83%

23 Junho, Quarta-feira

Tempo Temperatura Precipitação Vento Pressão Humidade
00:00 +16°C° 0 mm 7 m/s 763 mmHg 83%
01:00 +16°C° 0 mm 7 m/s 763 mmHg 84%
02:00 +15°C° 0 mm 6 m/s 763 mmHg 85%
03:00 +15°C° 0 mm 6 m/s 763 mmHg 85%
04:00 +15°C° 0 mm 6 m/s 762 mmHg 86%
05:00 +15°C° 0 mm 5 m/s 762 mmHg 86%
06:00 +17°C° 0 mm 5 m/s 762 mmHg 76%
07:00 +20°C° 0 mm 5 m/s 762 mmHg 65%
08:00 +22°C° 0 mm 5 m/s 763 mmHg 55%
09:00 +25°C° 0 mm 5 m/s 762 mmHg 49%
10:00 +26°C° 0 mm 5 m/s 762 mmHg 44%
11:00 +28°C° 0 mm 5 m/s 762 mmHg 39%
12:00 +28°C° 0 mm 6 m/s 762 mmHg 38%
13:00 +29°C° 0 mm 6 m/s 761 mmHg 37%
14:00 +29°C° 0 mm 7 m/s 761 mmHg 35%
15:00 +28°C° 0 mm 7 m/s 761 mmHg 40%
16:00 +27°C° 0 mm 8 m/s 761 mmHg 44%
17:00 +26°C° 0 mm 8 m/s 761 mmHg 48%
18:00 +23°C° 0 mm 7 m/s 761 mmHg 55%
19:00 +21°C° 0 mm 6 m/s 762 mmHg 63%
20:00 +19°C° 0 mm 5 m/s 762 mmHg 70%
21:00 +19°C° 0 mm 5 m/s 762 mmHg 73%
22:00 +18°C° 0 mm 4 m/s 762 mmHg 76%
23:00 +18°C° 0 mm 3 m/s 762 mmHg 79%

24 Junho, Quinta-feira

Tempo Temperatura Precipitação Vento Pressão Humidade
00:00 +17°C° 0 mm 3 m/s 762 mmHg 80%
01:00 +17°C° 0 mm 3 m/s 762 mmHg 81%
02:00 +17°C° 0 mm 3 m/s 761 mmHg 82%
03:00 +17°C° 0 mm 3 m/s 761 mmHg 79%
04:00 +18°C° 0 mm 3 m/s 762 mmHg 77%
05:00 +18°C° 0 mm 2 m/s 762 mmHg 74%
06:00 +21°C° 0 mm 3 m/s 762 mmHg 62%
07:00 +25°C° 0 mm 3 m/s 762 mmHg 51%
08:00 +27°C° 0 mm 3 m/s 762 mmHg 39%
09:00 +30°C° 0 mm 3 m/s 762 mmHg 34%
10:00 +33°C° 0 mm 3 m/s 762 mmHg 29%
11:00 +35°C° 0 mm 3 m/s 762 mmHg 24%
12:00 +36°C° 0 mm 3 m/s 761 mmHg 23%
13:00 +36°C° 0 mm 4 m/s 761 mmHg 22%
14:00 +37°C° 0 mm 4 m/s 761 mmHg 21%
15:00 +36°C° 0 mm 5 m/s 760 mmHg 23%
16:00 +35°C° 0 mm 6 m/s 760 mmHg 26%
17:00 +34°C° 0 mm 7 m/s 760 mmHg 29%
18:00 +30°C° 0 mm 6 m/s 761 mmHg 35%
19:00 +28°C° 0 mm 5 m/s 761 mmHg 41%
20:00 +25°C° 0 mm 4 m/s 761 mmHg 48%
21:00 +25°C° 0 mm 3 m/s 761 mmHg 49%
22:00 +24°C° 0 mm 3 m/s 761 mmHg 51%
23:00 +22°C° 0 mm 3 m/s 761 mmHg 52%
Mostrar mais